Waarnemingen

Advertentie
Mijn weer
Cardinham, Groot Brittannië (3823): temperatuur & dauwpunt: 12.02.2019 19:00:00 - 18.02.2019 19:00:00 (GMT)Cardinham, Groot Brittannië (3823): temperatuur -20cm & temperatuur -100cm: 12.02.2019 19:00:00 - 18.02.2019 19:00:00 (GMT)Cardinham, Groot Brittannië (3823): windsnelheid & windstoten: 12.02.2019 19:00:00 - 18.02.2019 19:00:00 (GMT)Cardinham, Groot Brittannië (3823): windrichting: 12.02.2019 19:00:00 - 18.02.2019 19:00:00 (GMT)Cardinham, Groot Brittannië (3823): luchtdruk: 12.02.2019 19:00:00 - 18.02.2019 19:00:00 (GMT)Cardinham, Groot Brittannië (3823): zicht: 12.02.2019 19:00:00 - 18.02.2019 19:00:00 (GMT)Cardinham, Groot Brittannië (3823): neerslag: 12.02.2019 19:00:00 - 18.02.2019 19:00:00 (GMT)
Datum & Tijd tt [°C] td [°C] tt -20cm [°C] tt -100cm [°C] ff [km/u] ff [kn] fx [km/u] fx [kn] dd ppp [hPa] vv [km] rr [mm]
18.02.2019 19:00:00 - - - - - - - - - - - -
18.02.2019 18:00:00 6,0 2,9 - - 15 8 - - W 1016,3 16 0,0
18.02.2019 17:00:00 7,6 4,3 - - 16 9 - - W 1015,7 18 0,0
18.02.2019 16:00:00 9,0 2,9 - - 21 11 - - W 1015,3 22 0,0
18.02.2019 15:00:00 9,1 3,6 - - 21 11 - - W 1014,9 17 0,0
18.02.2019 14:00:00 10,0 4,2 - - 22 12 - - W 1014,7 24 0,0
18.02.2019 13:00:00 10,1 4,7 - - 18 10 - - W 1014,8 16 0,0
18.02.2019 12:00:00 8,8 5,5 - - 16 9 - - W 1014,9 16 0,0
18.02.2019 11:00:00 7,7 6,5 - - 9 5 - - W 1014,7 16 0,0
18.02.2019 10:00:00 7,2 6,1 - - 13 7 - - WZW 1014,4 22 0,0
18.02.2019 09:00:00 6,9 6,3 7,9 7,7 11 6 - - WZW 1014,1 17 1,0
18.02.2019 08:00:00 6,4 5,3 - - 18 10 - - ZW 1014,2 3,2 0,8
18.02.2019 07:00:00 6,9 6,6 - - 16 9 - - ZZW 1013,5 9 0,0
18.02.2019 06:00:00 7,1 6,8 - - 16 9 - - ZZW 1013,3 8 0,0
18.02.2019 05:00:00 7,0 6,7 - - 15 8 - - Z 1013,2 9 0,0
18.02.2019 04:00:00 7,5 6,8 - - 21 11 - - ZZW 1013,3 11 0,0
18.02.2019 03:00:00 7,8 7,1 - - 18 10 - - ZZW 1013,6 10 0,0
18.02.2019 02:00:00 8,3 7,6 - - 21 11 - - ZZW 1013,9 10 0,0
18.02.2019 01:00:00 8,4 7,7 - - 18 10 - - ZZW 1014,0 9 0,0
18.02.2019 00:00:00 7,6 7,0 - - 13 7 - - Z 1014,0 8 0,0
17.02.2019 23:00:00 7,8 7,0 - - 18 10 - - ZZW 1014,0 8 0,0
17.02.2019 22:00:00 8,2 7,2 - - 24 13 - - ZZW 1013,8 9 0,0
17.02.2019 21:00:00 8,4 7,0 - - 21 11 - - ZZW 1013,6 10 0,0
17.02.2019 20:00:00 8,8 7,0 - - 26 14 - - ZZW 1013,4 10 0,0
17.02.2019 19:00:00 9,0 7,1 - - 24 13 - - ZZW 1013,3 11 0,0
17.02.2019 18:00:00 8,7 7,2 - - 26 14 46 25 Z 1012,8 11 0,0
17.02.2019 17:00:00 9,1 6,6 - - 28 15 61 33 ZZW 1012,4 13 0,0
17.02.2019 16:00:00 9,6 7,0 - - 28 15 - - ZZW 1012,4 13 0,0
17.02.2019 15:00:00 10,3 6,9 - - 31 17 48 26 ZZW 1012,4 13 0,0
17.02.2019 14:00:00 10,5 8,1 - - 28 15 - - ZZW 1012,3 12 0,2
17.02.2019 13:00:00 9,5 8,2 - - 28 15 65 35 ZZW 1012,5 3,2 1,0
17.02.2019 12:00:00 11,2 9,0 - - 26 14 - - ZZW 1012,3 13 -
17.02.2019 11:00:00 10,6 8,8 - - 21 11 - - ZW 1012,0 14 -
17.02.2019 10:00:00 9,5 8,9 - - 18 10 - - ZZW 1011,7 12 0,0
17.02.2019 09:00:00 9,7 9,5 7,7 7,7 28 15 48 26 ZZW 1011,2 11 0,2
17.02.2019 08:00:00 9,4 9,3 - - 29 16 - - Z 1010,7 3,6 0,0
17.02.2019 07:00:00 8,9 8,5 - - 26 14 - - Z 1010,7 7 0,0
17.02.2019 06:00:00 8,2 7,1 - - 26 14 - - ZO 1010,6 13 0,0
17.02.2019 05:00:00 7,9 6,2 - - 26 14 - - ZO 1011,4 15 0,0
17.02.2019 04:00:00 7,9 5,8 - - 29 16 46 25 ZZO 1012,0 16 0,0
17.02.2019 03:00:00 7,9 5,5 - - 31 17 - - ZZO 1013,0 17 0,0
17.02.2019 02:00:00 8,1 5,8 - - 34 18 46 25 ZZO 1013,3 16 0,0
17.02.2019 01:00:00 8,4 6,3 - - 31 17 46 25 ZZO 1014,1 15 0,0
17.02.2019 00:00:00 8,9 7,2 - - 35 19 52 28 ZZO 1014,6 17 0,0
16.02.2019 23:00:00 8,8 8,8 - - 29 16 - - ZO 1015,6 5 0,0
16.02.2019 22:00:00 9,0 9,0 - - 28 15 46 25 ZO 1016,7 0,4 0,0
16.02.2019 21:00:00 9,2 9,0 - - 29 16 48 26 ZO 1017,4 8 0,0
16.02.2019 20:00:00 9,4 9,3 - - 28 15 48 26 ZZO 1018,2 5 0,0
16.02.2019 19:00:00 9,4 8,9 - - 34 18 50 27 ZZO 1018,7 12 0,0
16.02.2019 18:00:00 9,3 8,8 - - 29 16 48 26 ZZO 1018,8 10 0,0
16.02.2019 17:00:00 9,5 9,2 - - 29 16 46 25 Z 1018,8 9 0,0
16.02.2019 16:00:00 9,8 9,8 - - 28 15 - - Z 1019,0 5 0,0
16.02.2019 15:00:00 10,0 10,0 - - 28 15 - - Z 1019,5 0,7 0,2
16.02.2019 14:00:00 10,2 10,2 - - 22 12 - - Z 1020,2 0,1 0,0
16.02.2019 13:00:00 10,2 10,2 - - 21 11 - - Z 1021,1 0,3 0,0
16.02.2019 12:00:00 10,2 10,2 - - 24 13 - - Z 1021,5 0,1 0,0
16.02.2019 11:00:00 10,1 10,1 - - 22 12 - - Z 1021,6 0,2 0,0
16.02.2019 10:00:00 10,1 10,0 - - 28 15 - - Z 1021,3 7 0,0
16.02.2019 09:00:00 9,5 9,3 7,5 7,7 21 11 - - Z 1021,5 7 0,0
16.02.2019 08:00:00 8,9 8,9 - - 16 9 - - Z 1021,4 2,2 0,0
16.02.2019 07:00:00 8,5 8,2 - - 13 7 - - Z 1021,4 5 0,0
16.02.2019 06:00:00 8,9 8,3 - - 11 6 - - Z 1021,2 9 0,0
16.02.2019 05:00:00 9,2 8,3 - - 13 7 - - ZW 1021,5 13 0,0
16.02.2019 04:00:00 9,7 9,3 - - 21 11 - - ZW 1021,4 8 0,0
16.02.2019 03:00:00 10,0 9,6 - - 18 10 - - ZW 1021,6 11 0,0
16.02.2019 02:00:00 10,0 10,0 - - 16 9 - - ZZW 1021,8 10 0,0
16.02.2019 01:00:00 9,9 9,9 - - 15 8 - - Z 1022,0 0,1 0,0
16.02.2019 00:00:00 9,9 9,9 - - 13 7 52 28 Z 1022,4 0,1 0,2
15.02.2019 23:00:00 9,7 9,7 - - 15 8 - - Z 1022,6 1,0 0,0
15.02.2019 22:00:00 9,6 9,5 - - 18 10 - - ZZO 1022,8 5 0,0
15.02.2019 21:00:00 9,3 9,2 - - 22 12 - - Z 1022,4 4,1 0,0
15.02.2019 20:00:00 9,2 9,2 - - 26 14 - - Z 1022,6 5 0,0
15.02.2019 19:00:00 9,0 8,8 - - 24 13 - - Z 1022,9 4,5 0,0
15.02.2019 18:00:00 8,5 8,2 - - 24 13 - - ZZO 1022,7 6 0,0
15.02.2019 17:00:00 8,9 8,2 - - 22 12 - - ZZO 1022,6 8 0,0
15.02.2019 16:00:00 9,7 8,0 - - 22 12 - - ZZO 1022,5 11 0,0
15.02.2019 15:00:00 10,9 8,7 - - 22 12 - - ZZO 1023,0 12 0,0
15.02.2019 14:00:00 11,9 9,0 - - 22 12 - - ZO 1023,2 16 0,0
15.02.2019 13:00:00 11,3 8,6 - - 26 14 - - ZZO 1023,8 14 0,0
15.02.2019 12:00:00 11,1 8,9 - - 24 13 - - ZZO 1024,7 15 0,0
15.02.2019 11:00:00 10,2 8,6 - - 22 12 - - ZZO 1025,1 11 0,0
15.02.2019 10:00:00 8,0 8,0 - - 18 10 - - OZO 1025,5 2,9 0,0
15.02.2019 09:00:00 6,7 6,7 7,2 7,7 21 11 - - ZO 1025,6 0,1 0,0
15.02.2019 08:00:00 6,6 6,6 - - 16 9 - - ZO 1025,4 - 0,0
15.02.2019 07:00:00 6,3 6,3 - - 24 13 - - ZO 1025,1 0,4 0,0
15.02.2019 06:00:00 6,1 6,1 - - 21 11 - - ZZO 1025,1 2,7 0,2
15.02.2019 05:00:00 6,2 5,8 - - 21 11 - - ZO 1025,1 4,8 0,0
15.02.2019 04:00:00 5,7 5,5 - - 16 9 - - ZO 1025,1 6 0,0
15.02.2019 03:00:00 5,6 5,6 - - 18 10 - - ZO 1025,5 2,7 0,0
15.02.2019 02:00:00 5,2 5,2 - - 22 12 - - ZO 1026,0 1,8 0,0
15.02.2019 01:00:00 4,9 4,7 - - 21 11 - - ZO 1026,5 3,6 0,0
15.02.2019 00:00:00 5,1 4,8 - - 21 11 - - ZO 1026,6 5 0,0
14.02.2019 23:00:00 5,1 4,9 - - 22 12 - - ZO 1026,7 5 0,0
14.02.2019 22:00:00 4,9 4,7 - - 28 15 - - ZO 1026,9 4,2 0,0
14.02.2019 21:00:00 5,1 4,9 - - 28 15 - - ZO 1026,8 4,4 0,0
14.02.2019 20:00:00 5,1 4,6 - - 28 15 - - ZO 1027,2 6 0,0
14.02.2019 19:00:00 5,6 4,2 - - 26 14 - - ZO 1027,2 14 0,0
14.02.2019 18:00:00 6,3 3,3 - - 24 13 - - ZO 1027,1 20 0,0
14.02.2019 17:00:00 7,4 2,8 - - 24 13 - - ZO 1027,1 25 0,0
14.02.2019 16:00:00 8,5 2,5 - - 28 15 - - ZO 1027,4 30 0,0
14.02.2019 15:00:00 9,1 3,9 - - 29 16 - - ZO 1027,9 30 0,0
14.02.2019 14:00:00 9,6 5,1 - - 29 16 - - ZZO 1028,1 20 0,0
14.02.2019 13:00:00 9,3 4,5 - - 31 17 - - ZO 1028,7 21 0,0
14.02.2019 12:00:00 8,7 6,8 - - 31 17 - - ZZO 1029,4 15 0,0
14.02.2019 11:00:00 7,0 7,0 - - 24 13 - - ZO 1030,0 7 0,0
14.02.2019 10:00:00 6,2 6,2 - - 24 13 - - ZO 1030,2 1,4 0,0
14.02.2019 09:00:00 5,6 5,6 7,2 7,7 24 13 - - ZO 1030,1 0,1 0,0
14.02.2019 08:00:00 5,4 5,4 - - 24 13 - - ZO 1030,0 - 0,0
14.02.2019 07:00:00 5,9 5,9 - - 21 11 - - ZO 1029,5 - 0,0
14.02.2019 06:00:00 5,5 5,5 - - 21 11 - - ZO 1029,5 0,1 0,2
14.02.2019 05:00:00 5,6 5,6 - - 16 9 - - ZO 1029,6 - 0,0
14.02.2019 04:00:00 6,4 6,4 - - 16 9 - - ZO 1029,7 0,1 0,0
14.02.2019 03:00:00 6,3 6,3 - - 16 9 - - ZO 1030,0 - 0,0
14.02.2019 02:00:00 6,6 6,6 - - 15 8 - - ZO 1030,2 - 0,0
14.02.2019 01:00:00 6,0 6,0 - - 21 11 - - ZO 1030,5 - 0,0
14.02.2019 00:00:00 6,1 6,1 - - 18 10 - - ZO 1030,5 - 0,0
13.02.2019 23:00:00 6,2 6,2 - - 18 10 - - ZO 1030,7 - 0,0
13.02.2019 22:00:00 5,8 5,8 - - 18 10 - - ZO 1030,7 3,2 0,0
13.02.2019 21:00:00 6,0 6,0 - - 21 11 - - ZO 1030,5 3,8 0,0
13.02.2019 20:00:00 5,7 5,6 - - 13 7 - - ZO 1030,5 2,0 0,0
13.02.2019 19:00:00 6,6 6,3 - - 21 11 - - ZZO 1030,5 5 0,0
13.02.2019 18:00:00 7,7 6,8 - - 22 12 - - Z 1030,2 13 0,0
13.02.2019 17:00:00 7,9 6,6 - - 22 12 - - ZZO 1030,3 13 0,0
13.02.2019 16:00:00 8,1 6,6 - - 26 14 - - Z 1030,3 13 0,0
13.02.2019 15:00:00 8,5 6,1 - - 24 13 - - ZZO 1030,5 20 0,0
13.02.2019 14:00:00 8,3 6,1 - - 26 14 - - Z 1031,1 25 0,0
13.02.2019 13:00:00 8,4 5,6 - - 28 15 - - Z 1031,1 24 0,0
13.02.2019 12:00:00 8,4 5,7 - - 28 15 - - ZZO 1031,4 22 0,0
13.02.2019 11:00:00 8,0 6,2 - - 28 15 - - Z 1031,4 20 0,0
13.02.2019 10:00:00 8,0 5,9 - - 26 14 - - Z 1031,0 18 0,0
13.02.2019 09:00:00 7,7 5,9 7,0 7,7 22 12 - - ZZO 1031,0 21 0,0
13.02.2019 08:00:00 7,2 5,5 - - 24 13 - - Z 1031,2 21 0,0
13.02.2019 07:00:00 7,3 5,7 - - 28 15 - - ZZO 1030,7 23 0,0
13.02.2019 06:00:00 6,9 6,1 - - 26 14 - - ZZO 1031,0 16 0,0
13.02.2019 05:00:00 6,8 6,2 - - 24 13 - - ZZO 1031,2 14 0,0
13.02.2019 04:00:00 7,0 6,3 - - 24 13 - - ZZO 1031,4 15 0,0
13.02.2019 03:00:00 7,4 6,8 - - 22 12 - - Z 1031,8 16 0,0
13.02.2019 02:00:00 7,0 5,8 - - 18 10 - - Z 1032,5 25 0,0
13.02.2019 01:00:00 7,3 5,1 - - 18 10 - - Z 1032,6 45 0,0
13.02.2019 00:00:00 8,1 4,9 - - 24 13 - - Z 1032,6 40 0,0
12.02.2019 23:00:00 8,1 6,1 - - 18 10 - - Z 1032,8 23 0,0
12.02.2019 22:00:00 8,1 6,8 - - 15 8 - - Z 1033,0 22 0,0
12.02.2019 21:00:00 8,1 7,5 - - 13 7 - - Z 1033,1 15 0,0
12.02.2019 20:00:00 8,3 8,0 - - 13 7 - - Z 1033,3 10 0,0
12.02.2019 19:00:00 8,3 7,7 - - 11 6 - - Z 1033,2 12 0,0

tt = temperatuur
td = dauwpunt
tt -20cm = temperatuur -20cm
tt -100cm = temperatuur -100cm
ff = windsnelheid
fx = windstoten
dd = windrichting
ppp = luchtdruk
vv = zicht
rr = neerslag

Weerstations in de omgeving